Weather in 'Amran

Yemen     15°39′36″N   43°56′44″E
temp.,
°C
wind,
m/s
gust,
m/s
humid.,
%
clouds,
%
prec.,
mm/h
press.,
hPa
HPBL,
m
9 december, thu
thu900:00+7ese11150 0.0 102210
03:00+6ese11130 0.0 102110
06:00+5ese22130 0.0 102210
09:00+15ese2260 0.0 1022308
12:00+20ene3350 0.0 10171353
15:00+19ne4460 0.0 10161373
18:00+12ne33110 0.0 102015
21:00+9ese22130 0.0 102312
10 december, fri
fri1000:00+7ese22160 0.0 102211
03:00+5se22190 0.0 102111
06:00+4se22230 0.0 102311
09:00+12ese23130 0.0 1023345
12:00+18e3470 0.0 10181158
15:00+18ene5590 0.0 10161235
18:00+11ene33200 0.0 102017
21:00+7ese32280 0.0 102317
11 december, sat
sat1100:00+5se22360 0.0 102315
03:00+4se22380 0.0 102211
06:00+3ese32390 0.0 102412
09:00+10ese33260 0.0 1023305
12:00+17e22130 0.0 10171068
15:00+19ene44143 0.0 10151468
18:00+12ene33330 0.0 101924
21:00+8ese32450 0.0 102318
12 december, sun
sun1200:00+6se32520 0.0 102316
03:00+5se22600 0.0 102312
06:00+4se22590 0.0 102411
09:00+11se22290 0.0 1023293
12:00+18nne01130 0.0 10171275
15:00+19nnw43160 0.0 10151335
18:00+13n23310 0.0 101917
21:00+9ese22460 0.0 102211
13 december, mon
mon1300:00+7se225317 0.0 102211
03:00+6se225925 0.0 102111
06:00+5se22612 0.0 102210
09:00+13sse11310 0.0 1021317
12:00+19nw32180 0.0 10161489
15:00+19nw64220 0.0 10141304
18:00+13n23320 0.0 101720
21:00+10ese22430 0.0 101910